[[{"header":{"parameterUnit":"m.s-1","parameterCategory":1,"la1":30.2991,"la2":30.254,"lo1":-89.0895,"lo2":-89.0444,"dy":0.0017,"dx":0.0017,"nx":28,"ny":28,"refTime":"2024-10-14T21:00:00:Z","depth":0,"parameterNumber":2,"parameterNumberName":"U-component_of_WINDS"},"data":[0,0,0,0,0,0,0,0,0,0,0,0,0,0,0,0,0,0,0,0,0,0,0,0,0,0,0,0,0,0,0,0,0,0,0,0,0,0,0,0,0,0,0,0,0,0,0,0,0,0,0,0,0,0,0,0,0,0,0.6259,0.626,0,0.6281,0.6282,0.6282,0.6248,0.6247,0.6245,0.6244,0.6273,0.6275,0.6277,0,0,0,0,0,0,0,0,0,0,0,0,0,0.6194,0.6196,0.6259,0.626,0.626,0.6281,0.6282,0.6282,0.6248,0.6247,0.6245,0.6244,0.6272,0.6274,0.6277,0,0,0,0,0,0,0,0,0,0,0,0,0,0.622,0.6196,0.6259,0.6245,0.6244,0.6281,0.6282,0.6282,0.6248,0.6247,0.6245,0.6243,0.6271,0.6274,0.6277,0.633,0,0,0.6286,0.6287,0,0,0,0,0,0,0,0,0.6219,0.6223,0.6247,0.6246,0.6245,0.626,0.6269,0.6298,0.6249,0.6247,0.6244,0.6242,0.627,0.6273,0.6281,0.6332,0.6333,0.6286,0.6288,0.6289,0.629,0,0,0,0,0,0,0,0.6217,0.6222,0.6268,0.6248,0.6246,0.624,0.6242,0.6275,0.6269,0.6247,0.6245,0.6247,0.627,0.6279,0.6282,0.6333,0.6286,0.6288,0.629,0.6291,0.6432,0.6434,0,0,0,0,0,0,0.6216,0.622,0.6267,0.6269,0.6227,0.6243,0.6245,0.6257,0.6268,0.6268,0.6249,0.6246,0.6275,0.6279,0.6283,0.6349,0.6289,0.6291,0.6293,0.643,0.6432,0.6434,0,0,0,0,0,0,0.6215,0.6221,0.6267,0.6244,0.6249,0.6246,0.626,0.6259,0.6268,0.6269,0.6269,0.6259,0.6274,0.6279,0.6319,0.6349,0.6293,0.6295,0.6427,0.6431,0.6433,0.6479,0,0,0,0,0,0,0.6213,0.622,0.6239,0.6244,0.6251,0.6301,0.6262,0.626,0.6272,0.6268,0.6279,0.6279,0.6273,0.6315,0.6322,0.6352,0.6297,0.6425,0.6429,0.6432,0.6475,0.6483,0.649,0,0,0,0,0,0.6211,0.6252,0.624,0.6246,0.6273,0.6302,0.6306,0.6296,0.6274,0.6295,0.6296,0.6279,0.6344,0.6319,0.6327,0.6358,0.6423,0.6428,0.6432,0.6471,0.6482,0.649,0,0,0,0,0,0,0.6251,0.6252,0.6239,0.6282,0.6293,0.6297,0.6322,0.6307,0.6325,0.6321,0.6309,0.6312,0.6356,0.636,0.6333,0.6412,0.638,0.6386,0.6408,0.6417,0.6425,0.6424,0.63,0,0,0,0,0,0.6265,0.6286,0.6286,0.6325,0.633,0.6325,0.6337,0.6329,0.6339,0.6344,0.6348,0.6361,0.6385,0.6401,0.6422,0.6474,0.6479,0.65,0.6508,0.6514,0.6521,0.6552,0.6563,0.645,0.645,0.645,0,0,0.6294,0.6297,0.6312,0.6333,0.634,0.6365,0.6329,0.6356,0.6376,0.6349,0.6388,0.6391,0.6405,0.6452,0.6473,0.6458,0.6552,0.652,0.6525,0.6528,0.6558,0.6569,0.6578,0.6453,0.6452,0.6452,0,0,0.6361,0.6364,0.6397,0.6404,0.6415,0.6411,0.6419,0.6425,0.6427,0.6464,0.6446,0.6469,0.6509,0.6521,0.6532,0.6604,0.659,0.6611,0.6653,0.6683,0.6692,0.67,0.6729,0.674,0.6617,0.6617,0.6617,0,0.6397,0.6431,0.6417,0.6446,0.6457,0.6432,0.6468,0.6476,0.6494,0.6503,0.6485,0.6536,0.6543,0.6594,0.6612,0.662,0.6632,0.6611,0.6692,0.67,0.6707,0.6735,0.6745,0.662,0.6619,0.6619,0.6619,0,0.6477,0.6501,0.6527,0.6544,0.6558,0.659,0.6583,0.6599,0.6589,0.6588,0.6629,0.6637,0.6661,0.6672,0.6663,0.6723,0.6713,0.6693,0.6662,0.6721,0.6747,0.6757,0.6624,0.6623,0.6622,0.6621,0,0,0.6571,0.6578,0.6589,0.6597,0.6606,0.6626,0.6658,0.668,0.6696,0.6709,0.6738,0.6773,0.6755,0.6768,0.676,0.6786,0.6847,0.6764,0.6764,0.6782,0.6918,0.6935,0.6947,0.6836,0.6838,0.684,0.6918,0,0.664,0.6693,0.6682,0.6736,0.676,0.6737,0.6765,0.6776,0.6776,0.6799,0.6799,0.6826,0.6798,0.6806,0.6831,0.6834,0.6875,0.6828,0.6867,0.6869,0.6868,0.696,0.6978,0.7051,0.6927,0.6929,0.693,0,0.6727,0.6743,0.6799,0.6806,0.6816,0.6842,0.6862,0.6883,0.6895,0.6894,0.6908,0.6895,0.6931,0.6896,0.6946,0.6915,0.693,0.6934,0.6937,0.6943,0.6905,0.6972,0.7073,0.7086,0.6945,0.6944,0.6943,0,0.6795,0.6829,0.6868,0.6875,0.6884,0.6903,0.6908,0.6918,0.6933,0.6951,0.6961,0.6983,0.6997,0.7016,0.7011,0.6986,0.7064,0.7028,0.7067,0.7067,0.7087,0.7086,0.7196,0.7091,0.7091,0.709,0.709,0,0.6875,0.6911,0.6899,0.6923,0.6964,0.695,0.6992,0.6994,0.7004,0.7031,0.7011,0.7037,0.7027,0.7053,0.705,0.7094,0.7099,0.7102,0.7101,0.7105,0.7106,0.7118,0.7114,0.7093,0.7093,0.7092,0.7092,0,0.6958,0.6951,0.6992,0.6996,0.6999,0.7029,0.7034,0.7058,0.7056,0.7091,0.7098,0.7096,0.7126,0.7122,0.7155,0.7153,0.721,0.7201,0.7205,0.7205,0.7245,0.7243,0.7369,0.7386,0.7267,0.7268,0.7269,0,0.7011,0.7039,0.7046,0.7061,0.7067,0.7092,0.7107,0.7095,0.7112,0.7129,0.7152,0.7179,0.7201,0.725,0.7254,0.728,0.7274,0.7317,0.7278,0.7283,0.728,0.7279,0.7284,0.7326,0.7327,0.7328,0.7329,0,0.7108,0.7103,0.7123,0.7144,0.7161,0.7177,0.7191,0.7205,0.7195,0.7215,0.7244,0.7261,0.7295,0.7324,0.7349,0.7357,0.7343,0.734,0.7351,0.7358,0.7361,0.7364,0.723,0.7338,0.7337,0.7337,0.7336,0.7336,0.718,0.7204,0.7214,0.7238,0.7247,0.7261,0.7284,0.7285,0.7309,0.7335,0.7326,0.7361,0.7375,0.7407,0.7417,0.7446,0.7431,0.7446,0.745,0.7455,0.7462,0.7353,0.745,0.7449,0.7449,0.7449,0.7449,0,0.7279,0.7283,0.7305,0.7325,0.7346,0.7327,0.7342,0.7361,0.7391,0.7404,0.7425,0.7461,0.7489,0.7494,0.7522,0.7545,0.7539,0.7553,0.7553,0.7556,0.7471,0.7461,0.7557,0.7557,0.7557,0.7557,0.7557,0.7557,0.7332,0.7373,0.737,0.7416,0.7421,0.7453,0.7464,0.7478,0.7488,0.7528,0.7551,0.7553,0.7564,0.7593,0.7619,0.762,0.7634,0.7651,0.765,0.7572,0.7561,0.7551,0.7541,0.7652,0.7653,0.7732,0.7733,0.7733]},{"header":{"parameterUnit":"m.s-1","parameterCategory":1,"la1":30.2991,"la2":30.254,"lo1":-89.0895,"lo2":-89.0444,"dy":0.0017,"dx":0.0017,"nx":28,"ny":28,"refTime":"2024-10-14T21:00:00:Z","depth":0,"parameterNumber":3,"parameterNumberName":"V-component_of_WINDS"},"data":[0,0,0,0,0,0,0,0,0,0,0,0,0,0,0,0,0,0,0,0,0,0,0,0,0,0,0,0,0,0,0,0,0,0,0,0,0,0,0,0,0,0,0,0,0,0,0,0,0,0,0,0,0,0,0,0,0,0,0.6058,0.6058,0,0.6051,0.6051,0.6051,0.6063,0.6064,0.6064,0.6064,0.6058,0.6058,0.6057,0,0,0,0,0,0,0,0,0,0,0,0,0,0.6081,0.608,0.6058,0.6058,0.6058,0.6051,0.6051,0.6051,0.6063,0.6064,0.6064,0.6065,0.6058,0.6058,0.6057,0,0,0,0,0,0,0,0,0,0,0,0,0,0.6072,0.608,0.6058,0.6063,0.6063,0.6051,0.6051,0.6051,0.6063,0.6064,0.6064,0.6065,0.6059,0.6058,0.6057,0.604,0,0,0.6054,0.6054,0,0,0,0,0,0,0,0,0.6072,0.6071,0.6062,0.6063,0.6063,0.6059,0.6057,0.6047,0.6063,0.6063,0.6064,0.6065,0.6058,0.6057,0.6055,0.6039,0.6039,0.6054,0.6054,0.6054,0.6053,0,0,0,0,0,0,0,0.6073,0.6072,0.6055,0.6062,0.6063,0.6065,0.6065,0.6055,0.6057,0.6063,0.6064,0.6063,0.6058,0.6055,0.6055,0.6039,0.6054,0.6054,0.6053,0.6053,0.6007,0.6007,0,0,0,0,0,0,0.6073,0.6072,0.6055,0.6055,0.6069,0.6064,0.6064,0.6059,0.6057,0.6058,0.6063,0.6064,0.6056,0.6055,0.6054,0.6033,0.6054,0.6053,0.6052,0.6008,0.6007,0.6006,0,0,0,0,0,0,0.6073,0.6071,0.6056,0.6064,0.6062,0.6063,0.6058,0.6059,0.6056,0.6057,0.6057,0.6059,0.6057,0.6056,0.6043,0.6033,0.6052,0.6052,0.6009,0.6008,0.6007,0.599,0,0,0,0,0,0,0.6074,0.6072,0.6065,0.6063,0.6061,0.6044,0.6058,0.6058,0.6055,0.6056,0.6054,0.6054,0.6057,0.6044,0.6042,0.6032,0.6051,0.601,0.6008,0.6007,0.5991,0.5988,0.5986,0,0,0,0,0,0.6075,0.6061,0.6065,0.6063,0.6054,0.6044,0.6043,0.6046,0.6054,0.6047,0.6047,0.6054,0.6034,0.6042,0.604,0.603,0.601,0.6009,0.6007,0.5992,0.5989,0.5986,0,0,0,0,0,0,0.6063,0.6061,0.6065,0.6051,0.6047,0.6046,0.6038,0.6043,0.6037,0.6039,0.6044,0.6043,0.6029,0.6028,0.6038,0.6012,0.6023,0.6021,0.6013,0.6009,0.6007,0.6007,0.605,0,0,0,0,0,0.6058,0.605,0.605,0.6037,0.6035,0.6036,0.6032,0.6035,0.6032,0.6031,0.603,0.6027,0.6019,0.6014,0.6008,0.5991,0.599,0.5983,0.598,0.5978,0.5976,0.5965,0.5961,0.6001,0.6001,0.6001,0,0,0.6049,0.6047,0.6042,0.6034,0.6032,0.6023,0.6035,0.6026,0.6019,0.6029,0.6017,0.6016,0.6012,0.5997,0.599,0.5996,0.5964,0.5976,0.5974,0.5973,0.5963,0.5959,0.5956,0.6,0.6,0.6,0,0,0.6028,0.6026,0.6015,0.6011,0.6007,0.6008,0.6005,0.6003,0.6002,0.599,0.5997,0.5989,0.5977,0.5973,0.597,0.5945,0.5951,0.5943,0.5928,0.5918,0.5914,0.5912,0.5902,0.5898,0.5941,0.5941,0.5941,0,0.6017,0.6004,0.6008,0.5998,0.5993,0.6001,0.5989,0.5986,0.598,0.5976,0.5983,0.5966,0.5965,0.5948,0.5941,0.5939,0.5935,0.5943,0.5915,0.5912,0.5909,0.59,0.5896,0.594,0.594,0.594,0.594,0,0.599,0.5981,0.5972,0.5965,0.596,0.5949,0.595,0.5945,0.5948,0.5948,0.5934,0.5932,0.5924,0.592,0.5924,0.5903,0.5907,0.5914,0.5925,0.5904,0.5895,0.5892,0.5938,0.5939,0.5939,0.5939,0,0,0.5962,0.5956,0.5953,0.5949,0.5944,0.5937,0.5925,0.5917,0.5911,0.5907,0.5896,0.5885,0.5891,0.5887,0.589,0.5881,0.586,0.5889,0.5889,0.5883,0.5835,0.5829,0.5825,0.5863,0.5863,0.5862,0.5835,0,0.594,0.592,0.5922,0.5902,0.5893,0.59,0.5889,0.5885,0.5884,0.5876,0.5876,0.5867,0.5876,0.5874,0.5865,0.5864,0.585,0.5866,0.5853,0.5853,0.5853,0.5821,0.5815,0.5789,0.5832,0.5831,0.5831,0,0.5912,0.5904,0.5884,0.5878,0.5875,0.5865,0.5857,0.585,0.5844,0.5844,0.5839,0.5843,0.5831,0.5843,0.5825,0.5836,0.5831,0.5829,0.5828,0.5827,0.584,0.5817,0.5781,0.5777,0.5826,0.5826,0.5826,0,0.5891,0.5877,0.5862,0.5858,0.5852,0.5845,0.5843,0.5838,0.5832,0.5825,0.5821,0.5813,0.5808,0.5802,0.5803,0.5812,0.5785,0.5797,0.5784,0.5783,0.5777,0.5778,0.5739,0.5775,0.5776,0.5776,0.5776,0,0.5865,0.5852,0.5852,0.5843,0.5828,0.583,0.5815,0.5813,0.5809,0.5799,0.5805,0.5795,0.5798,0.5789,0.579,0.5774,0.5772,0.5772,0.5772,0.577,0.577,0.5767,0.5768,0.5775,0.5775,0.5775,0.5775,0,0.584,0.584,0.5824,0.5819,0.5817,0.5806,0.5802,0.5793,0.5792,0.5779,0.5777,0.5775,0.5764,0.5765,0.5753,0.5754,0.5734,0.5737,0.5736,0.5736,0.5722,0.5723,0.568,0.5673,0.5714,0.5714,0.5714,0,0.5824,0.5813,0.5806,0.58,0.5796,0.5786,0.578,0.5781,0.5775,0.5767,0.5758,0.5748,0.5739,0.5721,0.5719,0.571,0.5712,0.5697,0.571,0.5709,0.571,0.571,0.5709,0.5694,0.5694,0.5694,0.5693,0,0.5793,0.5793,0.5784,0.5774,0.5766,0.5759,0.5752,0.5746,0.5747,0.5739,0.5727,0.572,0.5707,0.5696,0.5687,0.5684,0.5688,0.5689,0.5685,0.5683,0.5683,0.5682,0.5728,0.569,0.569,0.5691,0.5691,0.5691,0.5771,0.5761,0.5755,0.5744,0.5738,0.5731,0.5722,0.5719,0.5709,0.5698,0.57,0.5687,0.568,0.5668,0.5663,0.5653,0.5658,0.5653,0.5651,0.565,0.5648,0.5685,0.5651,0.5651,0.5651,0.5652,0.5652,0,0.574,0.5736,0.5725,0.5715,0.5706,0.571,0.5702,0.5694,0.5682,0.5676,0.5667,0.5653,0.5641,0.5638,0.5627,0.5619,0.5621,0.5616,0.5616,0.5615,0.5644,0.5648,0.5615,0.5615,0.5615,0.5615,0.5615,0.5615,0.5723,0.5706,0.5705,0.5685,0.5681,0.5667,0.5662,0.5655,0.565,0.5634,0.5624,0.5622,0.5616,0.5604,0.5594,0.5593,0.5589,0.5583,0.5583,0.561,0.5614,0.5617,0.5621,0.5582,0.5582,0.5555,0.5555,0.5554]}]]